This demonstration page uses our WeatherBlox Daily Observations layout. Learn more.

Left ArrowRight Arrow

Hourly Observations for July 20, 2016

Temp ( °F °C ) Dew Point ( °F °C ) Humidity (%) Winds ( mph kmh ) Pressure ( in mb ) Visibility ( mi km ) Precip ( " mm )
12:15 am 00:15 Clear 74 23.2 63 17.3 70 70 S 7 11 29.97 1015 10 16 N/A
12:35 am 00:35 Clear 74 23.6 63 17.2 67 67 S 7 11 29.97 1015 10 16 N/A
12:55 am 00:55 Clear 76 24.6 62 16.6 61 61 S 12 19 29.94 1014 10 16 N/A
1:15 am 01:15 Clear 75 24.1 62 16.6 63 63 S 10 17 29.94 1014 10 16 N/A
1:35 am 01:35 Clear 75 24.1 62 16.5 63 63 S 12 19 29.94 1014 10 16 N/A
1:55 am 01:55 Clear 74 23.6 62 16.6 65 65 S 12 19 29.97 1015 10 16 N/A
2:15 am 02:15 Clear 74 23.5 62 16.6 65 65 S 12 19 29.91 1013 10 16 N/A
2:35 am 02:35 Clear 74 23.3 62 16.6 66 66 S 10 17 29.94 1014 10 16 N/A
2:55 am 02:55 Clear 73 22.7 62 16.7 69 69 SSW 9 15 29.94 1014 10 16 N/A
3:15 am 03:15 Clear 72 22.3 63 17 72 72 SSW 7 11 29.97 1015 10 16 N/A
3:35 am 03:35 Clear 72 22.1 63 17.1 73 73 S 9 15 29.94 1014 10 16 N/A
3:55 am 03:55 Clear 72 22 63 17.2 74 74 SSW 8 13 29.97 1015 10 16 N/A
4:15 am 04:15 Clear 72 22 63 17.3 75 75 S 9 15 29.94 1014 10 16 N/A
4:35 am 04:35 Clear 72 22 64 17.5 76 76 S 8 13 29.94 1014 10 16 N/A
4:55 am 04:55 Clear 71 21.9 64 17.6 77 77 S 5 7 29.94 1014 10 16 N/A
5:15 am 05:15 Clear 70 21.3 64 17.7 80 80 S 6 9 29.94 1014 10 16 N/A
5:35 am 05:35 Clear 70 21.3 64 18 82 82 S 9 15 29.94 1014 10 16 N/A
5:55 am 05:55 Clear 71 21.5 64 18 81 81 S 9 15 29.94 1014 10 16 N/A
6:15 am 06:15 Clear 71 21.5 65 18.1 81 81 S 8 13 29.94 1014 10 16 N/A
6:35 am 06:35 Sunny 71 21.5 65 18.2 82 82 S 7 11 29.94 1014 10 16 N/A
6:55 am 06:55 Sunny 71 21.4 65 18.2 82 82 S 8 13 29.94 1014 10 16 N/A
7:15 am 07:15 Sunny 71 21.5 65 18.5 83 83 S 8 13 29.94 1014 10 16 N/A
7:35 am 07:35 Sunny 72 22.1 66 18.7 81 81 S 8 13 29.94 1014 10 16 N/A
7:55 am 07:55 Sunny 73 22.8 66 18.9 79 79 S 10 17 29.94 1014 10 16 N/A
8:15 am 08:15 Sunny 74 23.2 66 19 77 77 S 13 20 29.94 1014 10 16 N/A
8:35 am 08:35 Sunny 76 24.4 66 19.1 72 72 S 9 15 29.91 1013 10 16 N/A
8:55 am 08:55 Sunny 78 25.4 66 18.9 67 67 S 9 15 29.94 1014 10 16 N/A
9:15 am 09:15 Sunny 78 25.5 67 19.2 68 68 S 10 17 29.94 1014 10 16 N/A
9:35 am 09:35 Sunny 80 26.7 67 19.5 65 65 S 14 22 29.91 1013 10 16 N/A
9:55 am 09:55 Sunny 82 27.7 66 18.8 58 58 SSW 12 19 29.88 1012 10 16 N/A
10:15 am 10:15 Sunny 83 28.1 66 18.7 57 57 SSW 14 22 29.88 1012 10 16 N/A
10:35 am 10:35 Sunny 82 27.6 66 18.7 58 58 SSW 13 20 29.88 1012 10 16 N/A
10:55 am 10:55 Sunny 84 28.9 66 19.1 55 55 SSW 12 19 29.88 1012 10 16 N/A
11:15 am 11:15 Sunny 86 30 66 18.9 51 51 SSW 10 17 29.88 1012 10 16 N/A
11:35 am 11:35 Sunny 87 30.5 66 19 50 50 S 12 19 29.88 1012 10 16 N/A
11:55 am 11:55 Sunny 88 31.3 65 18.6 47 47 S 13 20 29.85 1011 10 16 N/A
12:15 pm 12:15 Sunny 89 31.4 65 18.4 46 46 S 10 17 29.85 1011 10 16 N/A
12:35 pm 12:35 Sunny 89 31.9 65 18.4 45 45 S 12 19 29.85 1011 10 16 N/A
12:55 pm 12:55 Sunny 90 32.2 64 18 43 43 S 13 20 29.85 1011 10 16 N/A
1:15 pm 13:15 Sunny 91 33 66 18.9 43 43 S 13 20 29.85 1011 10 16 N/A
1:35 pm 13:35 Sunny 92 33.1 65 18.4 42 42 S 9 15 29.83 1010 10 16 N/A
1:55 pm 13:55 Sunny 93 34 65 18.4 40 40 S 15 24 29.83 1010 10 16 N/A
2:15 pm 14:15 Sunny 93 33.8 66 18.8 41 41 S 12 19 29.83 1010 10 16 N/A
2:35 pm 14:35 Sunny 94 34.5 65 18.5 39 39 S 14 22 29.80 1009 10 16 N/A
2:55 pm 14:55 Sunny 94 34.6 66 18.7 39 39 SSE 15 24 29.77 1008 10 16 N/A
3:15 pm 15:15 Sunny 94 34.7 66 19.1 40 40 S 14 22 29.77 1008 10 16 N/A
3:35 pm 15:35 Sunny 95 34.9 67 19.6 41 41 SSE 12 19 29.77 1008 10 16 N/A
3:55 pm 15:55 Sunny 96 35.4 64 17.9 35 35 S 12 19 29.77 1008 10 16 N/A
4:15 pm 16:15 Sunny 96 35.8 64 17.9 35 35 S 13 20 29.77 1008 10 16 N/A
4:35 pm 16:35 Sunny 97 36 64 17.7 34 34 S 14 22 29.77 1008 10 16 N/A
4:55 pm 16:55 Sunny 97 36 63 17.4 33 33 S 14 22 29.74 1007 10 16 N/A
5:15 pm 17:15 Sunny 97 36.1 63 17.2 33 33 S 14 22 29.74 1007 10 16 N/A
5:35 pm 17:35 Sunny 97 35.9 64 18 35 35 S 12 19 29.74 1007 10 16 N/A
5:55 pm 17:55 Sunny 96 35.5 65 18.1 36 36 S 10 17 29.74 1007 10 16 N/A
6:15 pm 18:15 Sunny 95 34.8 66 18.7 39 39 S 12 19 29.74 1007 10 16 N/A
6:35 pm 18:35 Sunny 95 34.8 65 18.6 38 38 S 10 17 29.74 1007 10 16 N/A
6:55 pm 18:55 Sunny 94 34.5 65 18.5 39 39 S 9 15 29.74 1007 10 16 N/A
7:15 pm 19:15 Sunny 92 33.6 67 19.2 43 43 S 9 15 29.77 1008 10 16 N/A
7:35 pm 19:35 Sunny 91 33 67 19.6 45 45 S 10 17 29.77 1008 10 16 N/A
7:55 pm 19:55 Sunny 90 32.4 66 18.9 45 45 S 10 17 29.77 1008 10 16 N/A
8:15 pm 20:15 Sunny 89 31.5 66 18.9 47 47 S 10 17 29.77 1008 10 16 N/A
8:35 pm 20:35 Sunny 87 30.6 66 18.7 49 49 S 8 13 29.77 1008 10 16 N/A
8:55 pm 20:55 Sunny 85 29.6 65 18.3 51 51 S 8 13 29.80 1009 10 16 N/A
9:15 pm 21:15 Clear 83 28.5 65 18.4 54 54 S 8 13 29.80 1009 10 16 N/A
9:35 pm 21:35 Clear 82 27.7 64 18 56 56 SSE 8 13 29.80 1009 10 16 N/A
9:55 pm 21:55 Clear 80 26.6 65 18.1 60 60 SSE 6 9 29.83 1010 10 16 N/A
10:15 pm 22:15 Clear 78 25.8 65 18.2 63 63 SSE 6 9 29.85 1011 7 11 N/A
10:35 pm 22:35 Clear 78 25.7 64 18 63 63 SSE 8 13 29.85 1011 10 16 N/A
10:55 pm 22:55 Clear 78 25.8 64 18 62 62 S 8 13 29.85 1011 10 16 N/A
11:15 pm 23:15 Clear 77 25.1 65 18.4 66 66 S 7 11 29.88 1012 10 16 N/A
11:35 pm 23:35 Clear 77 25 65 18.4 67 67 S 8 13 29.85 1011 10 16 N/A
11:55 pm 23:55 Clear 77 25.2 65 18.1 65 65 S 8 13 29.85 1011 10 16 N/A

Powered by AerisWeather